Date Time,Air Temp,Sky Temp,Clarity,Light Level,Rain Sensor,Readings
2011-11-14 00:00:05,17.9,7.2,10.7,0.2,2.2,112
2011-11-14 00:05:05,17.5,7.2,10.3,0.1,2.3,112
2011-11-14 00:10:05,17.8,7.3,10.4,0.1,2.3,111
2011-11-14 00:15:05,17.7,7.1,10.6,0.2,2.3,112
2011-11-14 00:20:05,17.7,7.2,10.5,0.1,2.3,111
2011-11-14 00:25:05,17.6,6.9,10.7,0.1,2.3,112
2011-11-14 00:30:05,17.4,6.7,10.7,0.1,2.3,112
2011-11-14 00:35:05,17.4,6.7,10.6,0.2,2.3,111
2011-11-14 00:40:05,17.3,6.3,10.9,0.2,2.3,111
2011-11-14 00:45:05,17.2,6.3,10.9,0.2,2.3,112
2011-11-14 00:50:05,17.1,6.4,10.7,0.2,2.3,111
2011-11-14 00:55:05,17.1,6.8,10.3,0.1,2.3,112
2011-11-14 01:00:05,17.1,6.7,10.4,0.1,2.3,111
2011-11-14 01:05:05,17.1,6.7,10.4,0.1,2.3,112
2011-11-14 01:10:05,17.1,6.8,10.3,0.1,2.3,111
2011-11-14 01:15:05,17.1,6.9,10.2,0.1,2.3,111
2011-11-14 01:20:05,17.1,6.8,10.2,0.1,2.3,112
2011-11-14 01:25:05,17.1,6.8,10.2,0.1,2.3,111
2011-11-14 01:30:05,17.1,6.6,10.4,0.2,2.3,112
2011-11-14 01:35:05,17.1,7.0,10.1,0.2,2.4,111
2011-11-14 01:40:05,17.1,7.1,10.0,0.1,2.4,112
2011-11-14 01:45:05,17.1,7.0,10.1,0.1,2.3,111
2011-11-14 01:50:05,17.1,6.7,10.4,0.1,2.3,112
2011-11-14 01:55:05,17.1,6.8,10.3,0.1,2.4,111
2011-11-14 02:00:05,17.1,6.8,10.3,0.2,2.4,112
2011-11-14 02:05:05,17.1,6.7,10.3,0.2,2.5,111
2011-11-14 02:10:05,17.1,6.8,10.3,0.2,2.5,112
2011-11-14 02:15:05,17.0,6.7,10.3,0.1,2.5,111
2011-11-14 02:20:05,17.0,6.7,10.3,0.1,2.6,111
2011-11-14 02:25:05,17.0,6.6,10.4,0.2,2.6,112
2011-11-14 02:30:05,17.0,7.0,10.0,0.2,2.7,111
2011-11-14 02:35:05,17.0,6.1,10.9,0.2,2.6,112
2011-11-14 02:40:05,16.9,6.4,10.5,0.2,2.5,111
2011-11-14 02:45:05,16.9,6.5,10.4,0.1,2.4,112
2011-11-14 02:50:05,16.9,6.3,10.6,0.2,2.4,111
2011-11-14 02:55:05,16.5,6.2,10.3,0.2,2.3,112
2011-11-14 03:00:05,16.8,6.1,10.6,0.1,2.3,111
2011-11-14 03:05:05,16.7,6.3,10.3,0.1,2.3,111
2011-11-14 03:10:05,16.7,6.2,10.4,0.2,2.3,111
2011-11-14 03:15:05,16.6,6.2,10.4,0.2,2.3,111
2011-11-14 03:20:05,16.6,6.4,10.2,0.2,2.3,112
2011-11-14 03:25:05,16.7,6.3,10.4,0.2,2.3,111
2011-11-14 03:30:05,16.6,6.1,10.6,0.2,2.3,112
2011-11-14 03:35:05,16.6,6.0,10.6,0.3,2.3,111
2011-11-14 03:40:05,16.6,6.0,10.6,0.2,2.3,112
2011-11-14 03:45:05,16.6,6.3,10.4,0.2,2.3,111
2011-11-14 03:50:05,16.6,5.9,10.7,0.3,2.3,112
2011-11-14 03:55:05,16.6,6.0,10.6,0.3,2.3,111
2011-11-14 04:00:05,16.6,5.6,11.0,0.3,2.3,112
2011-11-14 04:05:05,16.6,6.0,10.7,0.3,2.3,112
2011-11-14 04:10:05,16.6,5.9,10.8,0.3,2.3,111
2011-11-14 04:15:05,16.7,6.2,10.5,0.3,2.3,112
2011-11-14 04:20:05,16.8,6.4,10.4,0.3,2.3,111
2011-11-14 04:25:05,16.8,5.9,10.9,0.3,2.3,112
2011-11-14 04:30:05,16.7,6.1,10.6,0.2,2.3,111
2011-11-14 04:35:05,16.7,6.1,10.6,0.2,2.3,112
2011-11-14 04:40:05,16.6,6.0,10.6,0.2,2.3,111
2011-11-14 04:45:05,16.5,6.0,10.5,0.2,2.2,112
2011-11-14 04:50:05,16.4,5.8,10.6,0.2,2.2,111
2011-11-14 04:55:05,16.4,6.0,10.4,0.2,2.1,112
2011-11-14 05:00:05,16.4,5.9,10.5,0.2,2.1,111
2011-11-14 05:05:05,16.4,5.9,10.5,0.2,2.1,112
2011-11-14 05:10:05,16.4,6.2,10.2,0.1,2.1,112
2011-11-14 05:15:05,16.6,6.2,10.3,0.1,2.1,111
2011-11-14 05:20:05,16.5,6.3,10.2,0.1,2.1,111
2011-11-14 05:25:05,16.5,6.3,10.3,0.1,2.2,112
2011-11-14 05:30:05,16.5,6.3,10.2,0.1,2.1,111
2011-11-14 05:35:05,16.6,6.4,10.2,0.1,2.2,111
2011-11-14 05:40:05,16.6,6.4,10.3,0.1,2.3,112
2011-11-14 05:45:05,16.6,6.5,10.1,0.1,2.3,111
2011-11-14 05:50:05,16.6,6.3,10.3,0.1,2.3,112
2011-11-14 05:55:05,16.6,6.3,10.3,0.1,2.3,111
2011-11-14 06:00:05,16.6,6.4,10.2,0.1,2.2,112
2011-11-14 06:05:05,16.6,6.2,10.4,0.1,2.2,111
2011-11-14 06:10:05,16.5,6.2,10.3,0.1,2.2,111
2011-11-14 06:15:05,16.5,6.2,10.3,0.1,2.2,112
2011-11-14 06:20:05,16.5,6.2,10.3,0.2,2.1,111
2011-11-14 06:25:05,16.5,6.3,10.2,0.3,2.1,112
2011-11-14 06:30:05,16.6,6.4,10.2,0.5,2.2,111
2011-11-14 06:35:05,16.6,6.2,10.4,1.1,2.2,111
2011-11-14 06:40:05,16.6,6.2,10.3,2.1,2.2,111
2011-11-14 06:45:05,16.6,6.3,10.3,3.9,2.2,112
2011-11-14 06:50:05,16.6,6.4,10.2,7.2,2.2,111
2011-11-14 06:55:05,16.7,6.3,10.3,11.6,2.3,111
2011-11-14 07:00:05,16.7,6.2,10.5,16.6,2.3,112
2011-11-14 07:05:05,16.7,6.3,10.4,20.8,2.3,111
2011-11-14 07:10:05,16.4,6.4,10.0,24.0,2.3,112
2011-11-14 07:15:05,16.8,6.2,10.5,26.7,2.3,111
2011-11-14 07:20:05,16.7,6.1,10.7,28.5,2.3,111
2011-11-14 07:25:05,16.7,6.0,10.8,29.3,2.3,112
2011-11-14 07:30:05,16.7,6.2,10.5,29.9,2.3,111
2011-11-14 07:35:05,16.7,6.1,10.6,30.3,2.3,112
2011-11-14 07:40:05,16.7,6.0,10.7,30.5,2.3,112
2011-11-14 07:45:05,16.8,6.1,10.6,30.9,2.3,111
2011-11-14 07:50:05,16.7,6.1,10.7,31.1,2.3,112
2011-11-14 07:55:05,16.8,6.4,10.4,31.2,2.3,111
2011-11-14 08:00:05,16.8,6.2,10.6,31.4,2.3,112
2011-11-14 08:05:05,16.8,6.7,10.1,31.4,2.3,111
2011-11-14 08:10:05,16.9,6.7,10.2,31.6,2.3,112
2011-11-14 08:15:05,16.9,6.7,10.2,31.6,2.3,111
2011-11-14 08:20:05,16.9,6.5,10.4,31.6,2.3,111
2011-11-14 08:25:05,16.9,6.4,10.5,31.6,2.3,112
2011-11-14 08:30:05,16.8,6.6,10.2,31.7,2.3,111
2011-11-14 08:35:05,16.9,6.4,10.4,31.7,2.3,112
2011-11-14 08:40:05,16.9,6.7,10.2,31.8,2.3,111
2011-11-14 08:45:05,16.9,6.5,10.4,31.8,2.3,112
2011-11-14 08:50:05,16.9,6.3,10.6,31.9,2.3,111
2011-11-14 08:55:05,16.9,6.7,10.2,31.9,2.3,111
2011-11-14 09:00:05,16.9,6.5,10.3,32.0,2.3,112
2011-11-14 09:05:05,16.9,6.5,10.3,32.0,2.3,111
2011-11-14 09:10:05,16.9,6.4,10.5,32.0,2.3,111
2011-11-14 09:15:05,16.9,6.7,10.2,32.0,2.3,112
2011-11-14 09:20:05,16.9,6.8,10.1,32.1,2.3,112
2011-11-14 09:25:05,16.9,6.7,10.3,32.0,2.3,111
2011-11-14 09:30:05,16.9,6.7,10.2,32.1,2.3,112
2011-11-14 09:35:05,16.7,7.1,9.6,32.2,2.3,111
2011-11-14 09:40:05,17.0,6.7,10.3,32.2,2.4,111
2011-11-14 09:45:05,17.1,6.8,10.2,32.2,2.4,112
2011-11-14 09:50:05,17.1,6.7,10.4,32.2,2.4,111
2011-11-14 09:55:05,17.1,7.0,10.1,32.1,2.5,112
2011-11-14 10:00:05,17.1,6.7,10.4,32.2,2.5,111
2011-11-14 10:05:05,17.0,6.6,10.4,32.2,2.4,112
2011-11-14 10:10:05,17.0,6.6,10.4,32.2,2.3,111
2011-11-14 10:15:05,17.0,6.8,10.2,32.3,2.3,111
2011-11-14 10:20:05,17.0,6.4,10.6,32.3,2.4,112
2011-11-14 10:25:05,17.0,6.3,10.7,32.3,2.3,111
2011-11-14 10:30:05,17.0,6.4,10.6,32.3,2.4,112
2011-11-14 10:35:05,17.0,6.5,10.5,32.3,2.4,111
2011-11-14 10:40:05,17.0,6.4,10.6,32.3,2.4,111
2011-11-14 10:45:05,17.0,6.4,10.6,32.3,2.4,112
2011-11-14 10:50:05,17.1,6.4,10.7,32.3,2.5,111
2011-11-14 10:55:05,17.1,6.5,10.6,32.3,2.4,112
2011-11-14 11:00:05,17.1,6.7,10.3,32.3,2.5,111
2011-11-14 11:05:05,17.1,6.5,10.6,32.3,2.5,111
2011-11-14 11:10:05,17.1,6.6,10.5,32.3,2.5,112
2011-11-14 11:15:05,17.1,6.7,10.4,32.3,2.6,111
2011-11-14 11:20:05,17.1,6.8,10.3,32.3,2.5,112
2011-11-14 11:25:05,17.1,7.0,10.2,32.2,2.5,111
2011-11-14 11:30:05,17.1,6.6,10.5,32.3,2.6,112
2011-11-14 11:35:05,17.1,6.8,10.3,32.2,2.5,111
2011-11-14 11:40:05,17.1,6.8,10.4,32.3,2.6,112
2011-11-14 11:45:05,17.1,6.7,10.4,32.3,2.5,111
2011-11-14 11:50:05,17.1,6.6,10.5,32.3,2.5,111
2011-11-14 11:55:05,17.1,6.8,10.3,32.3,2.5,112
2011-11-14 12:00:05,17.1,6.9,10.2,32.3,2.5,111
2011-11-14 12:05:05,17.2,6.9,10.3,32.3,2.6,112
2011-11-14 12:10:05,17.2,7.0,10.2,32.3,2.6,111
2011-11-14 12:15:05,17.3,7.4,9.9,32.3,2.7,111
2011-11-14 12:20:05,17.4,6.9,10.5,32.3,2.5,112
2011-11-14 12:25:05,17.4,7.2,10.3,32.3,2.5,111
2011-11-14 12:30:05,17.4,7.1,10.4,32.3,2.5,112
2011-11-14 12:35:05,17.4,7.3,10.1,32.3,2.6,111
2011-11-14 12:40:05,17.5,7.4,10.2,32.3,2.5,112
2011-11-14 12:45:05,17.5,7.0,10.5,32.3,2.4,111
2011-11-14 12:50:05,17.5,7.4,10.1,32.3,2.5,112
2011-11-14 12:55:05,17.5,7.3,10.2,32.3,2.5,111
2011-11-14 13:00:05,17.5,7.2,10.4,32.3,2.4,112
2011-11-14 13:05:05,17.5,7.2,10.4,32.3,2.5,111
2011-11-14 13:10:05,17.5,7.3,10.1,32.3,2.6,112
2011-11-14 13:15:05,17.5,7.0,10.4,32.3,2.6,111
2011-11-14 13:20:05,17.4,7.3,10.2,32.3,2.6,112
2011-11-14 13:25:05,17.5,7.3,10.2,32.3,2.5,112
2011-11-14 13:30:05,17.1,7.2,9.9,32.2,2.5,111
2011-11-14 13:35:05,17.4,7.0,10.4,32.2,2.6,111
2011-11-14 13:40:05,17.4,6.9,10.5,32.2,2.6,111
2011-11-14 13:45:05,17.2,6.9,10.3,32.1,2.6,112
2011-11-14 13:50:05,17.1,7.0,10.1,32.1,2.5,111
2011-11-14 13:55:06,17.1,6.9,10.2,32.1,2.5,112
2011-11-14 14:00:06,17.1,6.8,10.3,32.1,2.5,111
2011-11-14 14:05:06,17.1,7.0,10.1,32.1,2.3,111
2011-11-14 14:10:06,17.0,7.1,10.0,32.0,2.3,111
2011-11-14 14:15:06,17.0,6.9,10.1,32.0,2.3,112
2011-11-14 14:20:06,17.0,7.0,10.0,32.0,2.3,111
2011-11-14 14:25:06,17.0,6.7,10.3,32.0,2.3,112
2011-11-14 14:30:06,17.0,6.9,10.1,31.9,2.3,111
2011-11-14 14:35:06,17.0,6.9,10.1,31.9,2.3,111
2011-11-14 14:40:06,16.9,6.7,10.3,31.9,2.3,112
2011-11-14 14:45:06,16.9,6.5,10.4,31.8,2.3,111
2011-11-14 14:50:06,16.9,6.6,10.3,31.8,2.3,111
2011-11-14 14:55:06,16.8,6.4,10.4,31.7,2.3,112
2011-11-14 15:00:06,16.8,6.7,10.1,31.7,2.3,111
2011-11-14 15:05:06,16.8,6.3,10.5,31.8,2.3,111
2011-11-14 15:10:06,16.8,6.4,10.4,31.8,2.3,111
2011-11-14 15:15:06,16.8,6.6,10.2,31.8,2.3,112
2011-11-14 15:20:06,16.9,6.9,9.9,31.8,2.3,111
2011-11-14 15:25:06,16.9,6.8,10.1,31.8,2.3,111
2011-11-14 15:30:06,16.9,6.8,10.1,31.6,2.3,111
2011-11-14 15:35:06,16.9,6.7,10.2,31.6,2.3,112
2011-11-14 15:40:06,16.9,6.9,10.0,31.5,2.3,111
2011-11-14 15:45:06,16.9,6.8,10.1,31.3,2.3,111
2011-11-14 15:50:06,16.9,6.6,10.3,31.1,2.3,112
2011-11-14 15:55:06,16.9,6.2,10.7,31.1,2.3,111
2011-11-14 16:00:06,16.9,6.5,10.4,30.7,2.3,112
2011-11-14 16:05:06,16.9,6.5,10.4,30.2,2.3,111
2011-11-14 16:10:06,16.9,6.6,10.2,29.4,2.3,111
2011-11-14 16:15:06,16.9,6.7,10.2,28.0,2.3,112
2011-11-14 16:20:06,16.9,6.6,10.3,27.3,2.3,111
2011-11-14 16:25:06,16.8,6.5,10.3,25.2,2.3,112
2011-11-14 16:30:06,16.8,6.6,10.3,22.6,2.2,111
2011-11-14 16:35:06,16.8,6.3,10.5,18.8,2.2,111
2011-11-14 16:40:06,16.8,6.6,10.2,14.2,2.1,112
2011-11-14 16:45:06,16.8,6.5,10.2,9.0,2.1,111
2011-11-14 16:50:06,16.7,6.6,10.1,5.3,2.1,111
2011-11-14 16:55:06,17.0,6.1,10.8,3.0,2.1,112
2011-11-14 17:00:06,16.5,6.0,10.5,1.6,2.1,112
2011-11-14 17:05:06,16.4,6.3,10.1,0.8,2.3,111
2011-11-14 17:10:06,16.4,6.0,10.4,0.4,2.3,111
2011-11-14 17:15:06,16.3,6.3,10.0,0.2,2.4,112
2011-11-14 17:20:06,16.3,6.5,9.9,0.1,2.5,111
2011-11-14 17:25:06,16.4,6.4,10.0,0.0,2.4,111
2011-11-14 17:30:06,16.4,6.1,10.3,0.0,2.3,112
2011-11-14 17:35:06,16.3,5.9,10.4,0.0,2.3,111
2011-11-14 17:40:06,16.3,6.2,10.1,0.0,2.5,112
2011-11-14 17:45:06,16.2,6.2,10.1,0.0,2.4,111
2011-11-14 17:50:06,16.2,6.0,10.2,0.0,2.4,112
2011-11-14 17:55:06,16.2,5.8,10.5,0.0,2.5,112
2011-11-14 18:00:06,16.2,5.8,10.4,0.0,2.5,111
2011-11-14 18:05:06,16.2,5.4,10.9,0.0,2.4,112
2011-11-14 18:10:06,16.1,5.2,10.9,0.0,2.4,111
2011-11-14 18:15:06,16.1,5.7,10.4,0.0,2.4,112
2011-11-14 18:20:06,16.1,5.6,10.4,0.0,2.3,112
2011-11-14 18:25:06,16.1,5.8,10.2,0.0,2.4,112
2011-11-14 18:30:06,16.2,5.9,10.3,0.0,2.4,111
2011-11-14 18:35:06,16.2,5.5,10.7,0.0,2.5,112
2011-11-14 18:40:06,16.1,5.4,10.7,0.0,2.4,111
2011-11-14 18:45:06,16.0,5.3,10.7,0.0,2.4,112
2011-11-14 18:50:06,16.0,5.6,10.4,0.0,2.3,112
2011-11-14 18:55:06,16.0,6.0,10.0,0.0,2.3,111
2011-11-14 19:00:06,16.1,5.7,10.4,0.0,2.3,111
2011-11-14 19:05:06,16.1,5.7,10.4,0.0,2.3,112
2011-11-14 19:10:06,16.0,5.7,10.3,0.0,2.3,112
2011-11-14 19:15:06,16.0,5.7,10.3,0.0,2.3,111
2011-11-14 19:20:06,16.0,6.0,10.0,0.0,2.3,112
2011-11-14 19:25:06,16.0,5.8,10.2,0.0,2.3,111
2011-11-14 19:30:06,16.0,6.1,9.9,0.0,2.3,112
2011-11-14 19:35:06,16.1,6.2,9.9,0.0,2.3,111
2011-11-14 19:40:06,16.1,6.0,10.1,0.0,2.4,112
2011-11-14 19:45:06,16.1,5.4,10.7,0.0,2.4,112
2011-11-14 19:50:06,16.0,5.1,10.9,0.0,2.4,111
2011-11-14 19:55:06,15.9,5.1,10.8,0.0,2.5,112
2011-11-14 20:00:06,15.9,5.2,10.6,0.0,2.4,112
2011-11-14 20:05:06,15.8,5.2,10.6,0.0,2.4,112
2011-11-14 20:10:06,15.8,5.0,10.7,0.0,2.3,111
2011-11-14 20:15:06,15.7,5.4,10.4,0.0,2.3,112
2011-11-14 20:20:06,15.8,5.5,10.3,0.0,2.3,112
2011-11-14 20:25:06,15.9,5.9,10.0,0.0,2.3,111
2011-11-14 20:30:06,16.0,5.7,10.3,0.0,2.4,111
2011-11-14 20:35:06,16.0,5.9,10.1,0.0,2.4,112
2011-11-14 20:40:06,16.0,5.7,10.3,0.0,2.4,111
2011-11-14 20:45:06,16.0,5.6,10.4,0.0,2.5,112
2011-11-14 20:50:06,16.0,5.9,10.2,0.0,2.5,112
2011-11-14 20:55:06,16.0,5.6,10.5,0.0,2.5,111
2011-11-14 21:00:06,16.0,5.7,10.3,0.0,2.5,112
2011-11-14 21:05:06,16.0,5.8,10.2,0.0,2.5,111
2011-11-14 21:10:06,16.0,5.8,10.3,0.0,2.5,112
2011-11-14 21:15:06,16.0,5.6,10.4,0.0,2.5,112
2011-11-14 21:20:06,16.0,5.8,10.2,0.0,2.5,111
2011-11-14 21:25:06,16.0,5.7,10.3,0.0,2.5,111
2011-11-14 21:30:06,16.1,5.8,10.2,0.0,2.4,112
2011-11-14 21:35:06,16.1,5.3,10.8,0.0,2.5,112
2011-11-14 21:40:06,16.0,4.7,11.3,0.0,2.4,111
2011-11-14 21:45:06,15.9,4.9,11.0,0.0,2.4,112
2011-11-14 21:50:06,15.8,5.2,10.6,0.0,2.3,112
2011-11-14 21:55:06,15.8,5.5,10.3,0.0,2.3,111
2011-11-14 22:00:06,15.9,5.3,10.6,0.0,2.4,112
2011-11-14 22:05:06,15.9,4.8,11.1,0.0,2.4,112
2011-11-14 22:10:06,15.9,4.8,11.1,0.0,2.4,111
2011-11-14 22:15:06,15.8,5.0,10.8,0.0,2.3,112
2011-11-14 22:20:06,15.8,4.7,11.1,0.0,2.3,112
2011-11-14 22:25:06,15.8,4.6,11.2,0.0,2.3,111
2011-11-14 22:30:06,15.8,4.6,11.2,0.0,2.4,112
2011-11-14 22:35:06,15.8,4.5,11.3,0.0,2.3,112
2011-11-14 22:40:06,15.8,4.6,11.2,0.0,2.3,111
2011-11-14 22:45:06,15.8,5.2,10.6,0.0,2.3,112
2011-11-14 22:50:06,15.9,4.9,10.9,0.1,2.3,112
2011-11-14 22:55:06,15.9,4.6,11.3,0.1,2.3,111
2011-11-14 23:00:06,15.9,4.6,11.3,0.1,2.4,112
2011-11-14 23:05:06,15.9,4.5,11.4,0.1,2.3,112
2011-11-14 23:10:06,15.9,4.6,11.2,0.1,2.3,111
2011-11-14 23:15:06,15.9,4.5,11.4,0.1,2.3,112
2011-11-14 23:20:06,15.9,3.8,12.1,0.1,2.3,111
2011-11-14 23:25:06,15.9,3.5,12.3,0.1,2.3,112
2011-11-14 23:30:06,15.8,3.6,12.3,0.1,2.3,111
2011-11-14 23:35:06,15.8,3.9,11.9,0.1,2.3,112
2011-11-14 23:40:06,15.7,2.6,13.1,0.1,2.3,111
2011-11-14 23:45:06,15.6,3.4,12.2,0.1,2.3,111
2011-11-14 23:50:06,15.5,1.4,14.1,0.2,2.3,111
2011-11-14 23:55:06,15.3,2.2,13.1,0.2,2.3,111
